Location: Martley
(52.2333°N, 2.3667°W)
Time: 11:35:54
(UTC+00:00)

CZ-2C R/B - Pass Details

Date: 11 December 2019
Orbit: 785 x 870 km, 98.3° (Epoch: 25 January)

Event Time Altitude Azimuth Distance (km) Brightness Sun altitude
Rises 07:23:51 0° 154° (SSE) 3,330 6.8 -6.5°
Reaches altitude 10° 07:26:12 10° 151° (SSE) 2,390 6.1 -6.2°
Maximum altitude 07:31:26 67° 71° (ENE) 869 3.0 -5.5°
Drops below altitude 10° 07:36:36 10° 350° (N) 2,367 4.6 -4.8°
Sets 07:38:56 0° 347° (NNW) 3,296 5.3 -4.5°
